period_start,C,m1,H,J0,J1,J2,J3,J4,J5,JA,JB,JC,JD,JJ,JK,JN,#
2015-09-09 00:02:43,0.05,1.93,0.00,25.65,29.45,32.24,14.37,47.17,1023.46,2028.05,2691.21,2707.13,2933.32,599.65,594.32,25.65,0000 0000 0000 0000 000000
2015-09-09 00:07:44,0.02,1.93,0.00,25.65,29.46,32.22,14.33,47.30,1023.46,2028.03,2690.53,2706.95,2932.96,600.08,594.92,25.70,0000 0000 0000 0000 000000
2015-09-09 00:12:45,0.05,1.94,0.00,25.65,29.47,32.23,14.42,47.26,1023.45,2028.07,2689.95,2706.28,2932.30,599.72,594.52,25.75,0000 0000 0000 0000 000000
2015-09-09 00:17:47,0.02,1.94,0.00,25.65,29.47,32.23,14.37,47.13,1023.45,2028.06,2689.19,2705.99,2931.98,599.81,594.44,25.80,0000 0000 0000 0000 000000
2015-09-09 00:22:48,0.04,1.94,0.00,25.65,29.47,32.22,14.45,47.25,1023.45,2028.04,2688.82,2705.50,2931.29,599.98,594.62,25.85,0000 0000 0000 0000 000000
2015-09-09 00:27:49,0.02,1.94,0.00,25.67,29.48,32.21,14.48,47.30,1023.45,2028.01,2688.09,2705.01,2930.88,600.00,594.68,25.90,0000 0000 0000 0000 000000
2015-09-09 00:32:50,0.06,1.94,0.00,25.67,29.50,32.20,14.39,47.14,1023.45,2028.01,2687.31,2704.51,2930.09,599.57,594.23,25.95,0000 0000 0000 0000 000000
2015-09-09 00:37:51,0.01,1.95,0.00,25.67,29.50,32.25,14.38,47.18,1023.40,2028.01,2686.86,2704.00,2929.85,599.97,594.64,26.00,0000 0000 0000 0000 000000
2015-09-09 00:42:53,0.03,1.95,0.00,25.67,29.51,32.23,14.45,47.16,1023.38,2028.01,2686.08,2703.79,2929.07,599.89,594.52,26.05,0000 0000 0000 0000 000000
2015-09-09 00:47:54,0.05,1.95,0.00,25.67,29.52,32.23,14.41,47.09,1023.28,2028.00,2685.50,2703.07,2928.76,600.00,594.39,26.10,0000 0000 0000 0000 000000
2015-09-09 00:52:55,0.06,1.95,0.00,25.65,29.52,32.26,14.49,47.10,1023.39,2028.02,2684.38,2702.56,2928.04,599.98,594.62,26.15,0000 0000 0000 0000 000000
2015-09-09 00:57:56,0.03,1.95,0.00,25.61,29.52,32.27,14.40,47.02,1023.25,2028.01,2683.62,2701.99,2927.46,600.21,594.90,26.20,0000 0000 0000 0000 000000
2015-09-09 01:02:58,0.04,1.96,0.00,25.55,29.52,32.29,14.46,47.02,1023.07,2028.01,2682.97,2701.36,2926.94,600.22,594.90,26.25,0000 0000 0000 0000 000000
2015-09-09 01:07:59,0.04,1.96,0.00,25.50,29.52,32.30,14.48,47.36,1023.01,2028.00,2682.19,2701.00,2926.17,600.40,595.15,26.30,0000 0000 0000 0000 000000
2015-09-09 01:13:00,0.03,1.96,0.00,25.47,29.52,32.30,14.43,47.24,1022.98,2028.00,2681.69,2700.60,2925.90,599.81,594.68,26.35,0000 0000 0000 0000 000000
2015-09-09 01:18:01,0.07,1.96,0.00,25.45,29.52,32.29,14.52,47.30,1022.98,2028.07,2680.36,2700.00,2925.12,599.97,594.83,26.40,0000 0000 0000 0000 000000
2015-09-09 01:23:03,0.02,1.97,0.00,25.41,29.52,32.25,14.50,47.14,1022.98,2028.05,2680.00,2699.44,2924.71,600.21,595.23,26.46,0000 0000 0000 0000 000000
2015-09-09 01:28:04,0.03,1.97,0.00,25.37,29.52,32.23,14.51,47.23,1022.99,2028.00,2679.48,2699.01,2924.04,599.87,594.81,26.51,0000 0000 0000 0000 000000
2015-09-09 01:33:05,0.06,1.97,0.00,25.33,29.52,32.21,14.40,47.10,1022.98,2028.01,2678.58,2698.48,2923.46,599.74,594.98,26.56,0000 0000 0000 0000 000000
2015-09-09 01:38:07,0.02,1.97,0.00,25.30,29.50,32.17,14.44,47.15,1022.99,2028.02,2677.79,2698.00,2922.99,600.12,595.28,26.61,0000 0000 0000 0000 000000
2015-09-09 01:43:08,0.06,1.97,0.00,25.26,29.50,32.18,14.52,47.23,1023.30,2028.06,2677.00,2697.62,2922.30,600.21,595.58,26.66,0000 0000 0000 0000 000000
2015-09-09 01:48:09,0.03,1.98,0.00,25.25,29.49,32.16,14.48,47.13,1023.28,2028.11,2676.22,2697.02,2921.96,600.07,595.55,26.71,0000 0000 0000 0000 000000
2015-09-09 01:53:11,0.09,1.98,0.00,25.22,29.47,32.14,14.47,47.16,1023.12,2028.45,2675.43,2696.69,2921.20,599.67,595.04,26.76,0000 0000 0000 0000 000000
2015-09-09 01:58:12,0.06,1.98,0.00,25.20,29.46,32.11,14.44,47.09,1023.04,2028.66,2674.45,2696.01,2920.63,599.89,595.28,26.81,0000 0000 0000 0000 000000
2015-09-09 02:03:14,0.06,1.99,0.00,25.20,29.45,32.08,14.41,47.17,1023.12,2028.62,2673.51,2695.37,2919.78,599.96,595.38,26.86,0000 0000 0000 0000 000000
2015-09-09 02:08:15,0.07,1.99,0.00,25.18,29.44,32.08,14.42,47.06,1023.40,2028.72,2672.27,2694.66,2918.80,600.06,595.71,26.91,0000 0000 0000 0000 000000
2015-09-09 02:13:16,0.08,2.00,0.00,25.17,29.42,32.08,14.51,47.17,1023.43,2028.85,2670.95,2693.83,2917.79,599.74,595.41,26.96,0000 0000 0000 0000 000000
2015-09-09 02:18:17,0.07,2.00,0.00,25.17,29.41,32.06,14.44,47.10,1023.45,2028.91,2669.65,2692.99,2916.84,599.83,595.50,27.01,0000 0000 0000 0000 000000
2015-09-09 02:23:19,0.09,2.00,0.00,25.17,29.40,32.06,14.50,46.99,1023.44,2028.97,2668.08,2692.04,2915.72,600.25,595.87,27.06,0000 0000 0000 0000 000000
2015-09-09 02:28:20,0.07,2.01,0.00,25.17,29.40,32.05,14.47,47.00,1023.45,2028.98,2666.79,2691.09,2914.76,599.93,595.72,27.11,0000 0000 0000 0000 000000
2015-09-09 02:33:22,0.07,2.01,0.00,25.15,29.38,32.04,14.51,47.09,1023.47,2028.99,2665.71,2690.32,2913.84,600.15,595.91,27.16,0000 0000 0000 0000 000000
2015-09-09 02:38:23,0.08,2.02,0.00,25.15,29.37,32.03,14.49,47.14,1023.50,2028.99,2664.48,2689.55,2912.79,599.97,595.81,27.21,0000 0000 0000 0000 000000
2015-09-09 02:43:25,0.06,2.02,0.00,25.15,29.37,32.02,14.57,47.27,1023.68,2028.99,2663.12,2688.72,2911.81,600.65,596.53,27.26,0000 0000 0000 0000 000000
2015-09-09 02:48:26,0.07,2.02,0.00,25.15,29.35,32.02,14.45,47.25,1023.91,2028.99,2661.80,2687.93,2910.71,599.82,595.80,27.31,0000 0000 0000 0000 000000
2015-09-09 02:53:27,0.06,2.03,0.00,25.14,29.35,32.01,14.54,47.43,1023.93,2028.99,2660.71,2687.11,2909.83,600.50,596.52,27.36,0000 0000 0000 0000 000000
2015-09-09 02:58:29,0.07,2.03,0.00,25.12,29.34,32.01,14.51,47.33,1023.94,2028.99,2659.51,2686.54,2908.86,599.91,596.00,27.41,0000 0000 0000 0000 000000
2015-09-09 03:03:30,0.06,2.03,0.00,25.11,29.32,32.00,14.46,47.34,1023.94,2028.99,2658.20,2685.72,2907.85,600.29,596.40,27.46,0000 0000 0000 0000 000000
2015-09-09 03:08:32,0.05,2.04,0.00,25.10,29.32,32.00,14.46,47.23,1023.93,2028.99,2657.02,2685.01,2906.96,599.92,596.03,27.51,0000 0000 0000 0000 000000
2015-09-09 03:13:33,0.07,2.04,0.00,25.08,29.31,31.97,14.58,47.40,1023.92,2028.99,2655.92,2684.26,2906.11,600.33,596.44,27.56,0000 0000 0000 0000 000000
2015-09-09 03:18:35,0.07,2.04,0.00,25.07,29.30,31.99,14.51,47.29,1023.93,2028.99,2654.72,2683.58,2905.23,600.17,596.27,27.61,0000 0000 0000 0000 000000
2015-09-09 03:23:36,0.05,2.05,0.00,25.06,29.29,31.99,14.57,47.41,1023.94,2029.00,2653.61,2682.96,2904.37,600.54,596.72,27.66,0000 0000 0000 0000 000000
2015-09-09 03:28:38,0.07,2.05,0.00,25.04,29.27,31.98,14.49,47.15,1023.94,2029.01,2652.49,2682.13,2903.51,599.72,595.99,27.71,0000 0000 0000 0000 000000
2015-09-09 03:33:39,0.07,2.05,0.00,25.02,29.27,31.96,14.52,47.33,1023.94,2029.01,2651.33,2681.42,2902.59,599.94,596.17,27.76,0000 0000 0000 0000 000000
2015-09-09 03:38:40,0.07,2.06,0.00,25.01,29.25,31.95,14.50,47.14,1023.94,2029.01,2649.95,2680.60,2901.50,599.86,596.25,27.81,0000 0000 0000 0000 000000
2015-09-09 03:43:42,0.06,2.06,0.00,24.99,29.25,31.96,14.48,47.21,1023.94,2029.04,2648.69,2679.84,2900.64,599.93,596.22,27.86,0000 0000 0000 0000 000000
2015-09-09 03:48:43,0.06,2.07,0.00,24.97,29.23,31.96,14.49,47.34,1023.95,2029.08,2647.59,2679.06,2899.77,599.94,596.34,27.91,0000 0000 0000 0000 000000
2015-09-09 03:53:44,0.07,2.07,0.00,24.97,29.22,31.93,14.53,47.26,1023.95,2029.11,2646.45,2678.36,2898.89,600.26,596.65,27.96,0000 0000 0000 0000 000000
2015-09-09 03:58:45,0.09,2.07,0.00,25.00,29.21,31.95,14.47,47.19,1023.95,2029.36,2645.35,2677.72,2898.01,599.83,596.19,28.01,0000 0000 0000 0000 000000
2015-09-09 04:03:46,0.07,2.08,0.00,25.03,29.20,31.93,14.50,47.17,1023.96,2029.47,2644.23,2676.96,2897.10,600.31,596.60,28.06,0000 0000 0000 0000 000000
2015-09-09 04:08:48,0.08,2.08,0.00,25.06,29.20,31.90,14.55,47.34,1023.96,2029.65,2643.05,2676.10,2896.19,600.20,596.42,28.11,0000 0000 0000 0000 000000
2015-09-09 04:13:49,0.06,2.08,0.00,25.10,29.20,31.90,14.49,47.04,1023.95,2029.75,2642.08,2675.63,2895.51,600.04,596.19,28.16,0000 0000 0000 0000 000000
2015-09-09 04:18:51,0.05,2.09,0.00,25.14,29.18,31.90,14.54,47.25,1023.94,2029.80,2641.13,2674.99,2894.83,599.99,596.06,28.21,0000 0000 0000 0000 000000
2015-09-09 04:23:52,0.07,2.09,0.00,25.17,29.17,31.91,14.50,47.38,1023.95,2029.88,2640.26,2674.33,2894.03,599.94,595.91,28.26,0000 0000 0000 0000 000000
2015-09-09 04:28:53,0.04,2.09,0.00,25.20,29.17,31.91,14.48,47.23,1023.96,2029.89,2639.43,2673.95,2893.30,600.20,596.12,28.31,0000 0000 0000 0000 000000
2015-09-09 04:33:54,0.06,2.10,0.00,25.22,29.17,31.91,14.52,47.26,1023.96,2029.90,2638.48,2673.13,2892.59,599.84,595.70,28.36,0000 0000 0000 0000 000000
2015-09-09 04:38:55,0.05,2.10,0.00,25.24,29.17,31.90,14.47,47.30,1023.95,2029.94,2637.54,2672.67,2891.95,600.25,596.09,28.41,0000 0000 0000 0000 000000
2015-09-09 04:43:57,0.05,2.10,0.00,25.26,29.17,31.93,14.45,47.30,1023.96,2029.95,2636.67,2672.02,2891.09,599.71,595.52,28.46,0000 0000 0000 0000 000000
2015-09-09 04:48:58,0.06,2.10,0.00,25.27,29.17,31.91,14.40,47.06,1023.95,2029.96,2635.66,2671.38,2890.42,599.70,595.46,28.51,0000 0000 0000 0000 000000
2015-09-09 04:53:59,0.03,2.11,0.00,25.31,29.17,31.90,14.46,47.15,1023.94,2029.91,2634.74,2670.76,2889.68,599.59,595.31,28.56,0000 0000 0000 0000 000000
2015-09-09 04:59:01,0.05,2.11,0.00,25.32,29.17,31.88,14.39,47.11,1023.94,2029.89,2633.85,2670.03,2888.95,599.52,595.18,28.61,0000 0000 0000 0000 000000
2015-09-09 05:04:02,0.06,2.11,0.00,25.35,29.17,31.91,14.41,47.20,1023.94,2029.87,2632.90,2669.45,2888.12,599.88,595.37,28.66,0000 0000 0000 0000 000000
2015-09-09 05:09:04,0.03,2.12,0.00,25.37,29.17,31.86,14.50,47.42,1023.94,2029.82,2631.98,2668.95,2887.46,599.94,595.55,28.71,0000 0000 0000 0000 000000
2015-09-09 05:14:05,0.07,2.12,0.00,25.38,29.19,31.89,14.40,47.26,1023.94,2029.90,2631.10,2668.20,2886.80,599.56,594.98,28.76,0000 0000 0000 0000 000000
2015-09-09 05:19:06,0.05,2.12,0.00,25.40,29.20,31.87,14.44,47.23,1023.93,2029.81,2630.09,2667.64,2885.99,599.89,595.40,28.81,0000 0000 0000 0000 000000
2015-09-09 05:24:08,0.05,2.12,0.00,25.42,29.20,31.87,14.40,47.22,1023.94,2029.84,2629.08,2666.95,2885.11,600.10,595.51,28.86,0000 0000 0000 0000 000000
2015-09-09 05:29:09,0.06,2.13,0.00,25.42,29.20,31.87,14.42,47.02,1023.94,2029.73,2628.02,2666.11,2884.23,599.88,595.39,28.91,0000 0000 0000 0000 000000
2015-09-09 05:34:10,0.03,2.13,0.00,25.42,29.20,31.86,14.53,47.01,1023.94,2029.54,2627.03,2665.44,2883.40,600.26,595.68,28.96,0000 0000 0000 0000 000000
2015-09-09 05:39:12,0.05,2.13,0.00,25.44,29.21,31.84,14.43,47.16,1023.95,2029.54,2626.04,2664.93,2882.73,599.83,595.23,29.01,0000 0000 0000 0000 000000
2015-09-09 05:44:13,0.04,2.13,0.00,25.45,29.22,31.89,14.47,47.17,1023.95,2029.25,2624.93,2664.09,2881.78,599.95,595.43,29.06,0000 0000 0000 0000 000000
2015-09-09 05:49:14,0.05,2.14,0.00,25.47,29.22,31.89,14.45,47.24,1023.95,2029.14,2624.02,2663.52,2881.01,600.07,595.46,29.12,0000 0000 0000 0000 000000
2015-09-09 05:54:16,0.04,2.14,0.00,25.47,29.22,31.89,14.42,47.12,1023.94,2029.10,2623.14,2662.95,2880.19,599.59,594.99,29.17,0000 0000 0000 0000 000000
2015-09-09 05:59:17,0.06,2.14,0.00,25.49,29.23,31.89,14.50,47.18,1023.95,2029.06,2622.27,2662.09,2879.45,600.25,595.57,29.22,0000 0000 0000 0000 000000
2015-09-09 06:04:18,0.06,2.14,0.00,25.50,29.25,31.89,14.43,46.96,1023.95,2029.02,2621.21,2661.40,2878.79,599.76,595.05,29.27,0000 0000 0000 0000 000000
2015-09-09 06:09:19,0.04,2.15,0.00,25.52,29.25,31.90,14.41,47.04,1023.94,2029.05,2620.33,2660.95,2878.02,599.57,594.92,29.32,0000 0000 0000 0000 000000
2015-09-09 06:14:21,0.07,2.15,0.00,25.52,29.25,31.90,14.42,47.02,1023.95,2029.05,2619.26,2660.11,2877.16,600.12,595.39,29.37,0000 0000 0000 0000 000000
2015-09-09 06:19:22,0.06,2.15,0.00,25.54,29.26,31.89,14.41,47.04,1023.95,2029.04,2618.26,2659.54,2876.41,599.78,595.02,29.42,0000 0000 0000 0000 000000
2015-09-09 06:24:23,0.05,2.16,0.00,25.55,29.27,31.90,14.46,47.08,1023.96,2029.02,2617.25,2658.83,2875.60,600.12,595.42,29.47,0000 0000 0000 0000 000000
2015-09-09 06:29:24,0.05,2.16,0.00,25.57,29.27,31.92,14.47,47.01,1023.96,2029.00,2616.35,2658.06,2874.91,599.90,595.06,29.52,0000 0000 0000 0000 000000
2015-09-09 06:34:25,0.07,2.16,0.00,25.58,29.29,31.92,14.47,46.77,1023.97,2029.00,2615.38,2657.49,2874.05,600.22,595.39,29.57,0000 0000 0000 0000 000000
2015-09-09 06:39:27,0.04,2.17,0.00,25.60,29.30,31.91,14.40,46.83,1024.04,2029.00,2614.47,2656.93,2873.19,599.94,595.07,29.62,0000 0000 0000 0000 000000
2015-09-09 06:44:28,0.07,2.17,0.00,25.61,29.31,31.92,14.45,46.91,1024.05,2029.00,2613.44,2656.10,2872.51,599.99,595.12,29.67,0000 0000 0000 0000 000000
2015-09-09 06:49:29,0.07,2.17,0.00,25.62,29.32,31.94,14.41,46.89,1024.18,2029.00,2612.32,2655.44,2871.63,599.82,594.92,29.72,0000 0000 0000 0000 000000
2015-09-09 06:54:30,0.04,2.18,0.00,25.63,29.32,31.97,14.42,46.88,1024.29,2029.00,2611.33,2654.78,2870.87,599.95,595.24,29.77,0000 0000 0000 0000 000000
2015-09-09 06:59:32,0.05,2.18,0.00,25.65,29.34,31.96,14.52,46.90,1024.36,2029.00,2610.43,2654.03,2870.04,600.19,595.44,29.82,0000 0000 0000 0000 000000
2015-09-09 07:04:33,0.07,2.18,0.00,25.65,29.35,31.96,14.33,46.71,1024.32,2029.00,2609.48,2653.36,2869.20,599.69,595.01,29.87,0000 0000 0000 0000 000000
2015-09-09 07:09:35,0.05,2.18,0.00,25.67,29.35,31.95,14.45,46.81,1024.25,2029.00,2608.60,2652.78,2868.48,599.53,594.82,29.92,0000 0000 0000 0000 000000
2015-09-09 07:14:35,0.05,2.19,0.00,25.67,29.36,31.99,14.46,46.83,1024.34,2029.00,2607.59,2652.03,2867.74,599.67,594.85,29.97,0000 0000 0000 0000 000000
2015-09-09 07:19:37,0.05,2.19,0.00,25.67,29.37,31.95,14.41,46.67,1024.31,2029.00,2606.81,2651.36,2866.99,600.13,595.32,30.02,0000 0000 0000 0000 000000
2015-09-09 07:24:38,0.06,2.19,0.00,25.68,29.38,32.00,14.40,46.79,1024.38,2029.00,2605.76,2650.80,2866.12,599.87,595.01,30.07,0000 0000 0000 0000 000000
2015-09-09 07:29:40,0.05,2.20,0.00,25.70,29.40,31.99,14.44,46.89,1024.41,2028.98,2604.82,2650.04,2865.37,600.00,595.12,30.12,0000 0000 0000 0000 000000
2015-09-09 07:34:41,0.07,2.20,0.00,25.72,29.40,32.02,14.41,47.00,1024.42,2028.98,2603.84,2649.32,2864.59,599.84,594.99,30.17,0000 0000 0000 0000 000000
2015-09-09 07:39:42,0.05,2.20,0.00,25.74,29.40,32.03,14.44,46.86,1024.43,2028.92,2602.74,2648.65,2863.75,599.98,595.03,30.22,0000 0000 0000 0000 000000
2015-09-09 07:44:44,0.03,2.21,0.00,25.75,29.42,32.03,14.39,47.11,1024.43,2028.92,2601.92,2648.01,2862.99,600.17,595.19,30.27,0000 0000 0000 0000 000000
2015-09-09 07:49:45,0.06,2.21,0.00,25.77,29.42,32.02,14.35,46.94,1024.43,2028.87,2601.03,2647.46,2862.21,599.85,594.88,30.32,0000 0000 0000 0000 000000
2015-09-09 07:54:46,0.05,2.21,0.00,25.77,29.43,32.04,14.44,46.83,1024.43,2028.84,2600.12,2646.91,2861.60,600.05,595.03,30.37,0000 0000 0000 0000 000000
2015-09-09 07:59:47,0.04,2.21,0.00,25.79,29.45,32.02,14.43,46.79,1024.43,2028.73,2599.23,2646.09,2860.87,599.97,594.89,30.42,0000 0000 0000 0000 000000
2015-09-09 08:04:49,0.06,2.22,0.00,25.80,29.45,32.01,14.43,46.79,1024.43,2028.74,2598.29,2645.53,2860.05,600.03,595.18,30.47,0000 0000 0000 0000 000000
2015-09-09 08:09:50,0.06,2.22,0.00,25.82,29.45,32.05,14.34,46.73,1024.43,2028.73,2597.32,2644.96,2859.29,599.73,594.69,30.52,0000 0000 0000 0000 000000
2015-09-09 08:14:51,0.02,2.22,0.00,25.82,29.47,32.04,14.50,46.97,1024.43,2028.41,2596.56,2644.16,2858.64,600.25,595.32,30.57,0000 0000 0000 0000 000000
2015-09-09 08:19:53,0.04,2.22,0.00,25.82,29.47,32.05,14.51,47.14,1024.43,2028.25,2595.66,2643.70,2857.92,600.11,595.07,30.62,0000 0000 0000 0000 000000
2015-09-09 08:24:54,0.03,2.22,0.00,25.83,29.47,32.05,14.47,47.14,1024.43,2028.08,2594.68,2642.98,2857.08,600.03,594.99,30.67,0000 0000 0000 0000 000000
2015-09-09 08:29:55,0.06,2.23,0.00,25.85,29.49,32.08,14.41,47.00,1024.44,2028.07,2593.87,2642.19,2856.36,600.00,594.88,30.72,0000 0000 0000 0000 000000
2015-09-09 08:34:57,0.03,2.23,0.00,25.86,29.50,32.08,14.44,46.85,1024.43,2028.07,2592.98,2641.85,2855.79,599.70,594.59,30.77,0000 0000 0000 0000 000000
2015-09-09 08:39:58,0.06,2.23,0.00,25.87,29.50,32.09,14.41,46.90,1024.47,2028.06,2592.06,2641.05,2855.01,599.45,594.32,30.82,0000 0000 0000 0000 000000
2015-09-09 08:44:59,0.07,2.23,0.00,25.87,29.50,32.13,14.37,46.78,1024.56,2028.04,2591.13,2640.36,2854.17,599.64,594.59,30.87,0000 0000 0000 0000 000000
2015-09-09 08:50:00,0.04,2.24,0.00,25.87,29.52,32.10,14.47,46.86,1024.47,2028.02,2590.14,2639.86,2853.42,600.04,594.91,30.92,0000 0000 0000 0000 000000
2015-09-09 08:55:02,0.06,2.24,0.00,25.87,29.52,32.14,14.41,46.85,1024.45,2028.03,2589.24,2639.05,2852.74,600.31,595.23,30.97,0000 0000 0000 0000 000000
2015-09-09 09:00:03,0.07,2.24,0.00,25.89,29.52,32.14,14.39,46.70,1024.44,2028.05,2588.25,2638.22,2851.97,600.05,594.80,31.02,0000 0000 0000 0000 000000
2015-09-09 09:05:04,0.05,2.25,0.00,25.90,29.52,32.13,14.43,46.73,1024.49,2028.05,2587.37,2637.73,2851.12,600.04,594.76,31.07,0000 0000 0000 0000 000000
2015-09-09 09:10:05,0.05,2.25,0.00,25.90,29.53,32.15,14.37,46.83,1024.74,2028.06,2586.54,2637.02,2850.41,599.79,594.61,31.12,0000 0000 0000 0000 000000
2015-09-09 09:15:07,0.04,2.25,0.00,25.91,29.54,32.13,14.45,46.67,1024.82,2028.04,2585.78,2636.36,2849.91,600.05,595.08,31.17,0000 0000 0000 0000 000000
2015-09-09 09:20:08,0.03,2.25,0.00,25.91,29.55,32.15,14.43,46.83,1024.71,2028.02,2585.04,2635.98,2849.14,599.89,594.85,31.22,0000 0000 0000 0000 000000
2015-09-09 09:25:09,0.05,2.26,0.00,25.92,29.55,32.13,14.38,46.70,1024.72,2028.05,2584.47,2635.44,2848.87,599.88,594.75,31.27,0000 0000 0000 0000 000000
2015-09-09 09:30:10,0.02,2.26,0.00,25.91,29.55,32.12,14.45,46.82,1024.56,2028.01,2583.89,2634.99,2848.08,599.75,594.57,31.32,0000 0000 0000 0000 000000
2015-09-09 09:35:12,0.05,2.26,0.00,25.92,29.55,32.17,14.43,46.94,1024.61,2028.01,2583.08,2634.38,2847.74,600.11,594.98,31.37,0000 0000 0000 0000 000000
2015-09-09 09:40:13,0.02,2.26,0.00,25.91,29.55,32.18,14.47,46.97,1024.53,2028.02,2582.69,2634.01,2847.06,600.20,594.94,31.42,0000 0000 0000 0000 000000
2015-09-09 09:45:14,0.04,2.26,0.00,25.90,29.56,32.16,14.47,46.93,1024.52,2028.00,2582.02,2633.69,2846.73,600.44,595.09,31.47,0000 0000 0000 0000 000000
2015-09-09 09:50:15,0.04,2.27,0.00,25.90,29.57,32.20,14.36,46.92,1024.65,2028.00,2581.34,2633.04,2846.06,599.94,594.74,31.52,0000 0000 0000 0000 000000
2015-09-09 09:55:16,0.02,2.27,0.00,25.92,29.57,32.18,14.52,46.80,1024.80,2028.00,2580.87,2632.85,2845.74,600.29,595.27,31.57,0000 0000 0000 0000 000000
2015-09-09 10:00:17,0.05,2.27,0.00,25.92,29.57,32.20,14.36,46.73,1024.63,2028.00,2580.10,2632.12,2845.05,599.67,594.51,31.62,0000 0000 0000 0000 000000
2015-09-09 10:05:19,0.03,2.27,0.00,25.92,29.57,32.22,14.44,46.74,1024.45,2028.00,2579.44,2631.92,2844.65,600.14,594.92,31.67,0000 0000 0000 0000 000000
2015-09-09 10:10:20,0.04,2.28,0.00,25.92,29.57,32.23,14.41,46.82,1024.47,2028.00,2578.95,2631.20,2844.02,600.09,594.94,31.72,0000 0000 0000 0000 000000
2015-09-09 10:15:21,0.03,2.28,0.00,25.92,29.57,32.25,14.46,46.74,1024.82,2028.00,2578.13,2630.98,2843.70,600.56,595.54,31.77,0000 0000 0000 0000 000000
2015-09-09 10:20:23,0.06,2.28,0.00,25.92,29.57,32.23,14.34,46.67,1024.89,2028.00,2577.44,2630.26,2843.01,599.63,594.74,31.82,0000 0000 0000 0000 000000
2015-09-09 10:25:24,0.03,2.28,0.00,25.92,29.57,32.24,14.43,46.71,1024.91,2028.00,2576.83,2629.97,2842.46,600.10,595.11,31.87,0000 0000 0000 0000 000000
2015-09-09 10:30:26,0.05,2.28,0.00,25.92,29.58,32.24,14.37,46.72,1024.92,2028.00,2576.05,2629.23,2841.99,599.63,594.67,31.92,0000 0000 0000 0000 000000
2015-09-09 10:35:27,0.04,2.29,0.00,25.92,29.58,32.25,14.40,46.78,1024.94,2028.00,2575.42,2628.97,2841.34,599.79,594.84,31.97,0000 0000 0000 0000 000000
2015-09-09 10:40:28,0.04,2.29,0.00,25.92,29.59,32.26,14.40,46.61,1024.93,2028.00,2574.81,2628.30,2840.94,599.66,594.68,32.02,0000 0000 0000 0000 000000
2015-09-09 10:45:30,0.03,2.29,0.00,25.94,29.60,32.27,14.40,46.55,1024.93,2028.00,2574.01,2627.93,2840.14,599.68,594.71,32.07,0000 0000 0000 0000 000000
2015-09-09 10:50:31,0.06,2.29,0.00,25.93,29.60,32.24,14.35,46.48,1024.96,2028.00,2573.14,2627.10,2839.69,599.47,594.43,32.12,0000 0000 0000 0000 000000
2015-09-09 10:55:32,0.04,2.30,0.00,25.92,29.60,32.25,14.37,46.66,1024.96,2028.00,2572.43,2626.77,2839.02,599.55,594.58,32.18,0000 0000 0000 0000 000000
2015-09-09 11:00:33,0.05,2.30,0.00,25.95,29.60,32.25,14.36,46.58,1024.94,2028.00,2571.64,2626.05,2838.33,599.78,594.71,32.23,0000 0000 0000 0000 000000
2015-09-09 11:05:35,0.03,2.30,0.00,25.95,29.60,32.24,14.45,46.61,1024.94,2028.00,2570.95,2625.63,2837.88,599.82,594.96,32.28,0000 0000 0000 0000 000000
2015-09-09 11:10:36,0.05,2.30,0.00,25.95,29.60,32.24,14.44,46.60,1024.97,2028.00,2570.09,2625.01,2837.09,599.91,594.87,32.33,0000 0000 0000 0000 000000
2015-09-09 11:15:38,0.06,2.30,0.00,25.93,29.60,32.26,14.51,46.55,1024.95,2028.00,2569.35,2624.46,2836.63,600.26,595.16,32.38,0000 0000 0000 0000 000000
2015-09-09 11:20:39,0.02,2.31,0.00,25.93,29.60,32.27,14.39,46.63,1024.97,2028.00,2568.71,2623.99,2836.01,599.83,594.90,32.43,0000 0000 0000 0000 000000
2015-09-09 11:25:41,0.06,2.31,0.00,25.95,29.60,32.28,14.39,46.55,1024.96,2028.00,2567.94,2623.27,2835.36,599.78,594.72,32.48,0000 0000 0000 0000 000000
2015-09-09 11:30:42,0.03,2.31,0.00,25.93,29.60,32.27,14.52,46.59,1025.03,2028.00,2567.10,2622.99,2834.82,600.16,595.24,32.53,0000 0000 0000 0000 000000
2015-09-09 11:35:43,0.06,2.32,0.00,25.94,29.60,32.28,14.35,46.48,1025.27,2028.00,2566.23,2622.35,2834.05,599.59,594.98,32.58,0000 0000 0000 0000 000000
2015-09-09 11:40:44,0.04,2.32,0.00,25.92,29.60,32.32,14.47,46.52,1025.03,2028.00,2565.46,2621.93,2833.50,599.84,594.98,32.63,0000 0000 0000 0000 000000
2015-09-09 11:45:46,0.04,2.32,0.00,25.92,29.60,32.31,14.33,46.40,1025.12,2028.00,2564.79,2621.18,2832.98,599.78,594.93,32.68,0000 0000 0000 0000 000000
2015-09-09 11:50:47,0.04,2.32,0.00,25.92,29.60,32.28,14.43,46.48,1025.37,2028.00,2564.00,2620.83,2832.23,599.93,595.17,32.73,0000 0000 0000 0000 000000
2015-09-09 11:55:48,0.05,2.33,0.00,25.92,29.60,32.31,14.35,46.52,1025.40,2028.00,2563.16,2620.08,2831.86,599.55,594.99,32.78,0000 0000 0000 0000 000000
2015-09-09 12:00:49,0.04,2.33,0.00,25.92,29.60,32.30,14.52,46.59,1025.40,2028.00,2562.58,2619.85,2831.07,600.07,595.39,32.83,0000 0000 0000 0000 000000
2015-09-09 12:05:50,0.04,2.33,0.00,25.92,29.60,32.32,14.38,46.52,1025.40,2028.00,2561.99,2619.07,2830.61,600.16,595.37,32.88,0000 0000 0000 0000 000000
2015-09-09 12:10:51,0.02,2.33,0.00,25.92,29.60,32.31,14.40,46.38,1025.34,2028.00,2561.31,2618.98,2830.02,599.64,594.92,32.93,0000 0000 0000 0000 000000
2015-09-09 12:15:53,0.03,2.33,0.00,25.92,29.60,32.33,14.43,46.53,1025.36,2028.00,2560.98,2618.32,2829.96,599.83,595.28,32.98,0000 0000 0000 0000 000000
2015-09-09 12:20:54,0.03,2.33,0.00,25.92,29.60,32.34,14.41,46.43,1025.40,2028.00,2560.49,2618.02,2829.40,599.87,595.31,33.03,0000 0000 0000 0000 000000
2015-09-09 12:25:56,0.01,2.34,0.00,25.91,29.60,32.30,14.48,46.49,1025.40,2028.00,2560.03,2618.00,2829.04,599.68,595.01,33.09,0000 0000 0000 0000 000000
2015-09-09 12:30:57,0.00,2.34,0.00,25.91,29.60,32.30,14.44,46.65,1025.40,2028.00,2559.99,2617.97,2829.00,600.15,595.37,33.14,0000 0000 0000 0000 000000
2015-09-09 12:35:59,0.01,2.34,0.00,25.91,29.60,32.30,14.47,46.68,1025.42,2028.00,2559.90,2617.66,2828.99,600.19,595.62,33.19,0000 0000 0000 0000 000000
2015-09-09 12:41:00,0.04,2.34,0.00,25.91,29.60,32.34,14.42,46.60,1025.43,2028.00,2559.33,2617.12,2828.67,600.14,595.34,33.24,0000 0000 0000 0000 000000
2015-09-09 12:46:01,0.00,2.34,0.00,25.90,29.60,32.34,14.43,46.63,1025.49,2028.00,2559.06,2617.03,2828.40,599.86,595.24,33.29,0000 0000 0000 0000 000000
2015-09-09 12:51:02,0.00,2.34,0.00,25.90,29.60,32.28,14.53,46.65,1025.57,2028.00,2559.00,2617.00,2828.12,600.28,595.72,33.34,0000 0000 0000 0000 000000
2015-09-09 12:56:04,0.00,2.34,0.00,25.90,29.60,32.28,14.41,46.62,1025.52,2028.00,2559.00,2617.00,2828.05,599.80,595.27,33.39,0000 0000 0000 0000 000000